Flag for Italy Weather past 2 weeks in Trieste, Italy

Now
55 °F

Passing clouds.


Feels Like: 52 °F
Forecast: 46 / 61 °F
Wind: 14 mph from Northeast

Location: Trieste

Current Time: Oct 26, 2014 at 10:43:59 AM

Latest Report: Oct 26, 2014 at 10:00 AM


Visibility: 13 mi

Pressure: 30.26 "Hg

Humidity: 55%

Dew point: 40 °F

Location of TriesteLocation

Historic Weather in Trieste — Graph

°F

Trieste temperature yesterday

Maximum temperature yesterday: 60 °F (at 3:00 PM)
Minimum temperature yesterday: 53 °F (at 6:00 AM)
Average temperature yesterday: 55 °F

Past Weeks' High & Low Weather Summary

 TemperatureHumidityPressure
High77 °F (Oct 13, 12:00 PM)98% (Oct 14, 11:00 PM)30.27 "Hg (Oct 14, 11:00 PM)
Low48 °F (Oct 22, 6:00 AM)30% (Oct 22, 5:00 PM)29.44 "Hg (Oct 22, 4:00 AM)
Average64 °F76%29.96 "Hg
* Reported Oct 11 10:00 AM — Oct 26 9:00 AM, Trieste, Weather by CustomWeather, © 2014

Note: Actual official high and low records may vary slightly from our data, if they occured in-between our weather recording intervals... More about our weather records

Advertising

Trieste weather history for previous 24 hours

 ConditionsComfort  
Time TempWeatherWind HumidityBarometerVisibility
9:00 AM
Oct 26
54 °FSunny.20 mph57%30.26 "Hg12 mi
8:00 AM52 °FSunny.18 mph59%30.25 "Hg12 mi
7:00 AM52 °FSunny.18 mph60%30.22 "Hg12 mi
6:00 AM52 °FSunny.18 mph60%30.22 "Hg6 mi
5:00 AM51 °FClear.14 mph61%30.22 "Hg6 mi
4:00 AM51 °FClear.6 mph62%30.21 "Hg6 mi
3:00 AM52 °FClear.12 mph60%30.21 "Hg6 mi
2:00 AM53 °FClear.17 mph60%30.20 "Hg6 mi
2:00 AM53 °FClear.17 mph59%30.19 "Hg6 mi
1:00 AM53 °FPassing clouds.20 mph58%30.19 "Hg6 mi
12:00 AM54 °FPassing clouds.22 mph57%30.19 "Hg6 mi
11:00 PM
Oct 25
54 °FPassing clouds.20 mph58%30.20 "Hg6 mi
10:00 PM54 °FPassing clouds.17 mph57%30.20 "Hg6 mi
9:00 PM54 °FPassing clouds.12 mph58%30.19 "Hg6 mi
8:00 PM54 °FPassing clouds.8 mph57%30.18 "Hg6 mi
7:00 PM55 °FPassing clouds.7 mph56%30.17 "Hg12 mi
6:00 PM56 °FPassing clouds.6 mph53%30.15 "Hg12 mi
5:00 PM59 °FSunny.3 mph48%30.14 "Hg12 mi
4:00 PM59 °FSunny.8 mph46%30.14 "Hg12 mi
3:00 PM60 °FSunny.9 mph46%30.14 "Hg12 mi
2:00 PM59 °FSunny.9 mph47%30.14 "Hg12 mi
1:00 PM58 °FSunny.15 mph50%30.15 "Hg12 mi
12:00 PM57 °FSunny.20 mph50%30.14 "Hg12 mi
11:00 AM57 °FSunny.14 mph51%30.14 "Hg12 mi
10:00 AM55 °FPassing clouds.16 mph56%30.12 "Hg12 mi
Weather by CustomWeather, © 2014

See weather overviewHow to use our weather pages